Moses Lake, WA

12:15 AM PDT on August 29, 2016 (GMT -0700)
Grant County International

Weather History for KMWH - June, 2015

Change the Weather History Date:

Sunday, June 21, 2015

  Actual Average Record
Temperature  
Mean Temperature 71 °F 67 °F  
Max Temperature 82 °F 81 °F 100 °F (2005)
Min Temperature 59 °F 53 °F 45 °F (1985)
Degree Days  
Heating Degree Days 0 1  
Month to date heating degree days 4 44  
Since 1 June heating degree days 4 44  
Since 1 July heating degree days 4796 5871  
Cooling Degree Days 6 3  
Month to date cooling degree days 162 47  
Year to date cooling degree days 233 72  
Since 1 June cooling degree days 162 47  
Growing Degree Days 20 (Base 50)    
Moisture  
Dew Point 38 °F    
Average Humidity 32    
Maximum Humidity 46    
Minimum Humidity 18    
Precipitation  
Precipitation 0.00 in 0.02 in 0.78 in (1984)
Month to date precipitation 0.02 0.63  
Year to date precipitation 3.17 4.65  
Sea Level Pressure  
Sea Level Pressure 29.86 in    
Wind  
Wind Speed 8 mph (WNW)    
Max Wind Speed 20 mph    
Max Gust Speed 25 mph    
Visibility 10 miles    
Events      
T = Trace of Precipitation, MM = Missing Value Source: NWS Daily Summary

Daily Weather History Graph

Daily Weather History Graph

Search for Another Location

Airport or City:

Trip Planner

Search our weather history database for the weather conditions in past years. The results will help you decide how hot, cold, wet, or windy it might be!

Date:

Astronomy

Jun. 21, 2015 Rise Set
Actual Time 5:01 AM PDT 8:56 PM PDT
Civil Twilight 4:21 AM PDT 9:37 PM PDT
Nautical Twilight 3:25 AM PDT 10:32 PM PDT
Astronomical Twilight 2:00 AM PDT 11:57 PM PDT
Moon 10:26 AM PDT (6/21) 11:56 PM PDT (6/21)
Length of Visible Light 17h 16m
Length of Day
15h 55m
Waxing Crescent, 26% of the Moon is Illuminated
Jun 21
Waxing Crescent
Jun 24
First Quarter
Jul 1
Full
Jul 8
Last Quarter
Jul 15
New

Hourly Weather History & Observations

Time (PDT) Temp. Dew Point Humidity Pressure Visibility Wind Dir Wind Speed Gust Speed Precip Events Conditions
12:52 AM 66.0 °F 37.0 °F 34% 29.83 in 10.0 mi NNW 8.1 mph - N/A   Clear
1:52 AM 63.0 °F 39.9 °F 43% 29.83 in 10.0 mi Calm Calm - N/A   Clear
2:52 AM 63.0 °F 36.0 °F 37% 29.84 in 10.0 mi NNW 6.9 mph - N/A   Clear
3:52 AM 61.0 °F 37.0 °F 41% 29.84 in 10.0 mi North 9.2 mph - N/A   Clear
4:52 AM 61.0 °F 39.0 °F 44% 29.84 in 10.0 mi North 13.8 mph - N/A   Clear
5:52 AM 61.0 °F 37.9 °F 42% 29.86 in 10.0 mi North 12.7 mph - N/A   Clear
6:52 AM 60.8 °F 39.2 °F 45% 29.89 in 10.0 mi North 13.8 mph - N/A   Clear
7:52 AM 62.6 °F 39.2 °F 42% 29.89 in 10.0 mi North 16.1 mph - N/A   Clear
8:52 AM 66.0 °F 37.9 °F 36% 29.88 in 10.0 mi North 16.1 mph - N/A   Clear
9:52 AM 69.1 °F 37.9 °F 32% 29.88 in 10.0 mi North 11.5 mph - N/A   Clear
10:52 AM 73.4 °F 37.4 °F 27% 29.89 in 10.0 mi NNW 10.4 mph - N/A   Clear
11:52 AM 75.0 °F 35.1 °F 23% 29.86 in 10.0 mi NW 8.1 mph - N/A   Clear
12:52 PM 77.0 °F 30.9 °F 19% 29.86 in 10.0 mi Calm Calm - N/A   Clear
1:52 PM 78.8 °F 33.8 °F 20% 29.88 in 10.0 mi SSW 8.1 mph - N/A   Clear
2:52 PM 79.0 °F 36.0 °F 21% 29.86 in 10.0 mi SW 10.4 mph - N/A   Clear
3:52 PM 79.0 °F 35.1 °F 20% 29.86 in 10.0 mi SSW 8.1 mph - N/A   Clear
4:52 PM 81.0 °F 35.1 °F 19% 29.85 in 10.0 mi WSW 6.9 mph - N/A   Clear
5:52 PM 80.1 °F 37.9 °F 22% 29.84 in 10.0 mi SSW 9.2 mph - N/A   Clear
6:52 PM 80.1 °F 36.0 °F 20% 29.84 in 10.0 mi Variable 5.8 mph - N/A   Clear
7:52 PM 79.0 °F 39.0 °F 24% 29.85 in 10.0 mi SSW 8.1 mph - N/A   Clear
8:52 PM 75.0 °F 39.9 °F 28% 29.86 in 10.0 mi SW 8.1 mph - N/A   Clear
9:52 PM 73.9 °F 39.9 °F 29% 29.87 in 10.0 mi SSW 6.9 mph - N/A   Clear
10:52 PM 71.1 °F 46.0 °F 41% 29.89 in 10.0 mi South 4.6 mph - N/A   Clear
11:52 PM 66.0 °F 45.0 °F 47% 29.89 in 10.0 mi Calm Calm - N/A   Clear